STARLINK-30441, 57869

Orbit data source: Space-Track

STARLINK-30441, 57869 is a payload satellite owned by SpaceX/Seattle (US) in LEO that was launched on Sat, 16 Sep 2023 UTC via an FALCON 9 launch vehicle from the Air Force Eastern Test Range (AFETR). Payload-class satellites include a variety of spacecraft equipped with specific instruments for various scientific and technological missions. These include communications satellites like Starlink; space stations such as the ISS; scientific satellites like the Hubble; Earth observation satellites from companies like Planet Labs, Umbra, and HawkEye 360; GPS; miniature CubeSats for education and research; and military/defense satellites.

Loading next visibility...
Identifier
57869, 2023-144F
Orbit
LEO
Country
Flag of USUS
Related business
Manufacturer
SpaceX/Seattle
Mission
Operational spacecraft
Bus & Motor
STARLINK V2M, Unknown motor
Mass
730 kg wet, ~700 kg dry
Launch date (UTC)
2023-09-16 (2 years ago)
Launch vehicle
FALCON 9
Launch site
Air Force Eastern Test Range (AFETR)
Object type
Payload
Rocket body
Debris
Shape & HBR
Unknown shape, 17.7 m
Radar Cross Section
Large (>1 m²)

Expand to show TLE details & history
Last TLE update: 1 day ago

TLE from 1 day ago
0 STARLINK-30441
1 57869U 23144F   25348.38862073  .00014779  00000-0  11095-2 0  9994
2 57869  43.0025  31.4016 0000355 294.3055  65.7750 15.02445248124739
Epoch: 2025-12-14T09:19Z
TLE epoch observation values (Epoch: 2025-12-14T09:19:36.831Z)
Latitude
-0.00002°
Longitude
168.19587°
Altitude
559.036 km
Speed
7.584 km/s
True Right ascension
02h 05m 36s
True Declination
0° 00' 00"
Sunlit
Object was in full shadow at epoch
Visualization orbit readout
Latitude
Unknown
Longitude
Unknown
Altitude
Unknown
Speed
Unknown
Apparent Right ascension
Unknown
Apparent Declination
Unknown
Sunlit
N/A
Visualization observer readout
Local Sidereal Time
17:23:09
Azimuth
Unknown
Elevation
Unknown
Doppler factor
Unknown
Orbital elements
Apogee altitude
561.529 km
Perigee altitude
561.036 km
Semi-major axis
6,939.419 km
Eccentricity
0.00004
Inclination
43.0025°
RAAN
31.4016°
Arg. of periapsis
294.3055°
True anomaly
65.77871°
Mean anomaly
65.775°
Eccentric anomaly
65.77685°
Mean motion
3.75456 °/min
Orbital period
95.88 mins
BSTAR
0.0011095
Loading maneuver chart data...
Computing Atmospheric mass density...
Loading historical data...
Loading historical data...
Loading historical data...
Loading historical data...
Loading historical data...
Loading historical data...
Loading historical data...

Documentation

Showing up to 5 results
|